Tracking 18844 objects as of 21-Nov-2017
HD Live streaming from Space Station
objects crossing your sky now

AMC-21

Track AMC-21 now!
AMC-21 is classified as:


NORAD ID: 33275
Int'l Code: 2008-038B
Perigee: 35,783.4 km
Apogee: 35,803.8 km
Inclination: 0.1 °
Period: 1,436.1 minutes
Semi major axis: 42164 km
RCS: 19.9526 m2 (large)
Launch date: August 14, 2008
Source: SOCIETE EUROPEENNE DES SATELLITES (SES)
Launch site: FRENCH GUIANA (FRGUI)

AMC 21, also known as Americom 21, carries 24 Ku-band transponders and two reflector antennas to provide television services to the United States, Canada, Mexico and Caribbean countries, after parking over 125° W longitude.
aabbcc
Your satellite tracking list
Your tracking list is empty




NASA's NSSDC Master Catalog

Two Line Element Set (TLE):
1 33275U 08038B   17324.81365345 +.00000040 +00000-0 +00000-0 0  9995
2 33275 000.0610 087.4374 0002421 168.7544 331.8584 01.00272157034101
Source of the keplerian elements: AFSPC